Tracking 30692 objects as of 16-Jun-2025
HD Live streaming from Space Station
objects crossing your sky now

STARLINK-5906

Track STARLINK-5906 now!
10-day predictions
STARLINK-5906 is classified as:


NORAD ID: 55962
Int'l Code: 2023-037BA
Perigee: 577.0 km
Apogee: 581.4 km
Inclination: 70.0 °
Period: 96.1 minutes
Semi major axis: 6950 km
RCS: Unknown
Launch date: March 17, 2023
Source: United States (US)
Launch site: AIR FORCE WESTERN TEST RANGE (AFWTR)
Your satellite tracking list
Your tracking list is empty




NASA's NSSDC Master Catalog

Two Line Element Set (TLE):
1 55962U 23037BA  25166.87610983 -.00000442  00000-0 -29237-4 0  9993
2 55962  69.9990 217.3168 0003180 272.4078  87.6716 14.98328068124507
Source of the keplerian elements: AFSPC